Index, Date, Time, Latitude, Longitude, Altitude, Speed, Course, Distance, Type, Timeout, MSVs_QCN, Weight Criteria, SleepTime, EHPE, Satelite ID
1, 2021/02/04, 18:52:33,0,0,0,0,0,0, -2(000000D2),14,0,0,109,0,0
2, 2021/02/04, 18:53:36,38.684315,-121.770844,25.98,576,161,0, 00(00000000),54, C6,36,0,2304,67109256
3, 2021/02/04, 18:55:35,38.684288,-121.770882,36.169998,0,224,4.447448, 00(00000000),1, C0,45,0,1536,67109324
4, 2021/02/04, 18:57:35,38.68417,-121.771011,20.08,1548,209,17.310276, 00(00000000),1, C0,45,0,1568,67109324
5, 2021/02/04, 18:59:36,38.684364,-121.770935,27.029999,0,200,22.623824, 00(00000000),1, C0,45,0,1792,67109320
6, 2021/02/04, 19:01:38,38.684303,-121.770958,24.4,1296,209,7.071599, 00(00000000),1, C6,45,0,1488,67109324
7, 2021/02/04, 19:03:40,38.684349,-121.770958,6.95,0,207,5.0901, 00(00000000),1, C4,45,0,3040,67109192
8, 2021/02/04, 19:05:41,38.684425,-121.770927,18.279999,0,14,8.887429, 00(00000000),1, C0,45,0,1056,67109320
9, 2021/02/04, 19:07:44,38.684601,-121.770821,26.23,0,16,21.602624, 00(00000000),1, C0,45,0,1232,67109320
10, 2021/02/04, 19:09:48,38.684441,-121.770958,21.449999,1584,313,21.435315, 00(00000000),1, C0,45,0,1056,67109324
11, 2021/02/04, 19:11:50,38.684467,-121.770889,23.66,0,242,6.658669, 00(00000000),1, C0,45,0,1328,67109320
12, 2021/02/04, 19:13:54,38.684357,-121.770912,16.07,0,273,12.460469, 00(00000000),1, C0,45,0,1584,67109192
13, 2021/02/04, 19:15:56,38.684334,-121.770935,15.95,0,198,3.228643, 00(00000000),1, C0,45,0,1248,67117516
14, 2021/02/04, 19:17:59,38.684319,-121.77095,24.57,0,196,2.152429, 00(00000000),1, C0,45,0,1280,67109320
15, 2021/02/04, 19:20:02,38.684311,-121.771042,10.719999,1188,184,7.991834, 00(00000000),1, C0,45,0,848,67109324
16, 2021/02/04, 19:22:05,38.684299,-121.770958,22.609999,1620,212,7.394771, 00(00000000),1, C0,45,0,1248,67109324
17, 2021/02/04, 19:24:05,38.684357,-121.770973,24.519999,0,219,6.499012, 00(00000000),1, C0,45,0,1520,67109320
18, 2021/02/04, 19:26:06,38.684361,-121.770973,12.54,1836,208,0.424175, 00(00000000),1, C0,45,0,1200,67117516
19, 2021/02/04, 19:28:07,38.684315,-121.770897,26.719999,0,199,8.352428, 00(00000000),1, C0,45,0,1856,67109320
20, 2021/02/04, 19:30:07,38.684345,-121.770996,18.09,0,194,9.253558, 00(00000000),1, C0,45,0,1840,67109320
21, 2021/02/04, 19:32:07,38.684311,-121.770844,44.610001,0,263,13.783675, 00(00000000),1, C0,45,0,1872,67109320
22, 2021/02/04, 19:34:08,38.684345,-121.770897,47.099998,0,357,6.005191, 00(00000000),1, C0,45,0,1360,8648
23, 2021/02/04, 19:36:08,38.684227,-121.770897,39.389999,0,242,13.149424, 00(00000000),1, C0,45,0,1312,67117512
24, 2021/02/04, 19:38:08,38.68438,-121.770912,24.309999,216,344,17.018614, 00(00000000),1, C5,45,0,3312,8648
25, 2021/02/04, 19:40:07,38.684319,-121.770905,27.779999,1404,218,6.819031, 00(00000000),1, C0,45,0,1696,8648
26, 2021/02/04, 19:42:09,38.684338,-121.770844,27.129999,0,45,5.706544, 00(00000000),1, C0,45,0,1952,8648
27, 2021/02/04, 19:44:10,38.684357,-121.770866,26.18,0,40,2.906022, 00(00000000),1, C0,45,0,1280,8648
28, 2021/02/04, 19:46:11,38.684357,-121.770897,31,0,9,2.648892, 00(00000000),1, C5,45,0,2128,8648
29, 2021/02/04, 19:48:12,38.684341,-121.770912,36.779999,504,1,2.152428, 00(00000000),1, C0,45,0,1120,8648
30, 2021/02/04, 19:50:13,38.684341,-121.770905,32.25,0,35,0.662223, 00(00000000),1, C0,45,0,1520,8648
31, 2021/02/04, 19:52:14,38.684395,-121.770851,37.209999,1584,354,7.533498, 00(00000000),1, C0,45,0,1216,8520
32, 2021/02/04, 19:54:16,38.684208,-121.77095,52.219997,1440,293,22.496928, 00(00000000),1, C0,45,0,1168,8648
33, 2021/02/04, 19:56:16,38.684334,-121.770828,38.689999,720,15,17.555739, 00(00000000),1, C0,45,0,1392,67109320
34, 2021/02/04, 19:58:17,38.68428,-121.770927,33.599998,0,345,10.458413, 00(00000000),1, C0,45,0,1200,603988296
35, 2021/02/04, 20:00:19,38.684235,-121.770859,38.299999,0,345,7.837786, 00(00000000),1, C0,45,0,832,134226248
36, 2021/02/04, 20:02:20,38.684326,-121.770882,28.58,864,116,10.372238, 00(00000000),1, C0,45,0,1280,671088968
37, 2021/02/04, 20:04:22,38.684422,-121.770866,23.9,1476,7,10.686764, 00(00000000),1, C0,45,0,1552,134226248
38, 2021/02/04, 20:06:24,38.684284,-121.770874,34.239998,0,44,15.284652, 00(00000000),1, C0,45,0,1456,671097160
39, 2021/02/04, 20:08:26,38.68428,-121.770996,30.039999,0,16,10.604065, 00(00000000),1, C0,45,0,1200,671097176
40, 2021/02/04, 20:10:28,38.684414,-121.77092,9.7,756,321,16.256117, 00(00000000),1, C6,45,0,1776,738197832
41, 2021/02/04, 20:12:30,38.684399,-121.770866,20.51,0,35,4.936312, 00(00000000),1, C0,45,0,1120,671097176
42, 2021/02/04, 20:14:32,38.684349,-121.770927,31.539999,0,20,7.646811, 00(00000000),1, C0,45,0,1424,671097160
43, 2021/02/04, 20:16:34,38.684357,-121.771004,17.23,252,12,6.676348, 00(00000000),1, C0,45,0,1184,536879432
44, 2021/02/04, 20:18:36,38.68433,-121.770912,26.469999,0,359,8.483275, 00(00000000),1, C0,45,0,1088,536879432
45, 2021/02/04, 20:20:36,38.684391,-121.770912,29.289999,0,331,6.7868, 00(00000000),1, C0,45,0,960,671097176
46, 2021/02/04, 20:22:38,38.684361,-121.77095,24.549999,0,28,4.741164, 00(00000000),1, C5,45,0,1808,536879432
47, 2021/02/04, 20:24:39,38.684383,-121.770866,18.98,504,13,7.716249, 00(00000000),1, C0,45,0,1376,536879432
48, 2021/02/04, 20:26:39,38.684353,-121.770874,24.17,2772,29,3.457413, 00(00000000),1, C0,45,0,1424,671097160
49, 2021/02/04, 20:28:39,38.684269,-121.770882,35.029999,0,14,9.355317, 00(00000000),1, C0,45,0,1136,201335112
50, 2021/02/04, 20:30:39,38.684303,-121.771019,24.709999,0,24,12.516423, 00(00000000),1, C0,45,0,992,671097176
51, 2021/02/04, 20:32:39,38.68425,-121.770966,35.989998,864,65,7.533502, 00(00000000),1, C0,45,0,1248,671097160
52, 2021/02/04, 20:34:39,38.684284,-121.770851,26.15,684,45,10.641684, 00(00000000),1, C0,45,0,1504,671088968
53, 2021/02/04, 20:36:39,38.684288,-121.770844,29.529999,0,76,0.786425, 00(00000000),1, C0,45,0,1056,671097176
54, 2021/02/04, 20:38:39,38.684364,-121.770897,23.529999,0,343,9.667378, 00(00000000),1, C7,45,0,1568,671097176
55, 2021/02/04, 20:40:40,38.684414,-121.771057,12.94,0,329,14.960041, 00(00000000),1, C0,45,0,944,671097160
56, 2021/02/04, 20:42:41,38.684288,-121.770966,30.779999,1224,354,16.09619, 00(00000000),1, C0,45,0,928,671097176
57, 2021/02/04, 20:44:43,38.684334,-121.770912,14.46,0,39,6.884589, 00(00000000),1, C6,45,0,1296,671097168
58, 2021/02/04, 20:46:45,38.684326,-121.770943,13.91,1728,143,2.781426, 00(00000000),1, C0,45,0,1056,671097176
59, 2021/02/04, 20:48:47,38.684319,-121.771027,37.799999,0,332,7.333689, 00(00000000),1, C0,45,0,1328,671097176
60, 2021/02/04, 20:50:49,38.684322,-121.770958,30.059999,0,218,5.975084, 00(00000000),1, C0,45,0,1008,671097176
61, 2021/02/04, 20:52:51,38.684345,-121.77108,23.09,1008,218,10.896944, 00(00000000),1, C0,45,0,928,671088976
62, 2021/02/04, 20:54:52,38.684296,-121.77108,23.769999,828,14,5.514275, 00(00000000),1, C0,45,0,1200,671097168
63, 2021/02/04, 20:56:53,38.684307,-121.770859,25.049999,0,137,19.246593, 00(00000000),1, C0,45,0,1296,671097168
64, 2021/02/04, 20:58:53,38.684307,-121.770859,24.92,0,94,0, 00(00000000),1, C5,45,0,2016,671097152
65, 2021/02/04, 21:00:53,38.684277,-121.771004,30.83,0,19,13.031811, 00(00000000),1, C0,45,0,992,671097168
66, 2021/02/04, 21:02:53,38.684273,-121.770973,33.540001,864,34,2.682642, 00(00000000),1, C0,45,0,1392,671097104
67, 2021/02/04, 21:04:53,38.684387,-121.770981,34.349998,0,14,12.742469, 00(00000000),1, C0,45,0,1072,671097152
68, 2021/02/04, 21:06:52,38.684158,-121.77092,29.82,2448,129,25.996047, 00(00000000),1, C0,45,0,1472,671097168
69, 2021/02/04, 21:08:53,38.684227,-121.770866,42.959999,612,47,8.932191, 00(00000000),1, C0,45,0,1440,671096912
70, 2021/02/04, 21:10:53,38.684254,-121.770958,49.119999,0,51,8.483286, 00(00000000),1, C0,45,0,1120,671097168
71, 2021/02/04, 21:12:54,38.684334,-121.770966,50.469997,0,322,8.932257, 00(00000000),1, C0,45,0,1232,671097168
72, 2021/02/04, 21:14:54,38.684303,-121.770988,46.959999,1836,14,3.932177, 00(00000000),1, C0,45,0,784,671097152
73, 2021/02/04, 21:16:56,38.684269,-121.770897,45.66,0,31,8.816101, 00(00000000),1, C0,45,0,1040,671097152
74, 2021/02/04, 21:18:57,38.684349,-121.770882,38.52,0,49,9.0056, 00(00000000),1, C0,45,0,1072,671097168
75, 2021/02/04, 21:20:58,38.684315,-121.770828,36.75,1404,84,6.00519, 00(00000000),1, C0,45,0,1072,671097168
76, 2021/02/04, 21:22:59,38.68441,-121.770889,34.509998,0,13,11.854082, 00(00000000),1, C0,45,0,1136,536879440
77, 2021/02/04, 21:24:59,38.684223,-121.77092,42.169998,756,23,20.952689, 00(00000000),1, C0,45,0,1120,671097152
78, 2021/02/04, 21:26:59,38.684319,-121.770905,41.68,2052,46,10.686764, 00(00000000),1, C0,45,0,1120,671097152
79, 2021/02/04, 21:28:59,38.684345,-121.77095,39.419998,1260,328,4.960213, 00(00000000),1, C0,45,0,1344,671097168
80, 2021/02/04, 21:30:59,38.684261,-121.770966,45.59,1368,131,9.425369, 00(00000000),1, C0,45,0,1200,671097152
81, 2021/02/04, 21:32:58,38.684319,-121.770943,42.439999,0,131,6.665572, 00(00000000),1, C0,45,0,832,671097152
82, 2021/02/04, 21:34:58,38.68428,-121.77092,39.309998,0,348,4.683941, 00(00000000),1, C0,45,0,928,671097152
83, 2021/02/04, 21:36:59,38.684315,-121.770897,36.73,0,333,4.303573, 00(00000000),1, C4,45,0,2864,671096896
84, 2021/02/04, 21:38:59,38.684414,-121.77092,41.040001,1368,338,11.206059, 00(00000000),1, C0,45,0,1088,671097168
85, 2021/02/04, 21:40:59,38.684242,-121.770935,38.329998,0,302,19.133769, 00(00000000),1, C0,45,0,1120,671097168
86, 2021/02/04, 21:42:58,38.68428,-121.770943,35.399998,0,340,4.293132, 00(00000000),1, C0,45,0,1056,671097152
87, 2021/02/04, 21:44:59,38.684258,-121.771057,34.040001,0,290,10.254211, 00(00000000),1, C0,45,0,960,671097152
88, 2021/02/04, 21:46:59,38.684238,-121.77092,33.32,0,285,12.107239, 00(00000000),1, C0,45,0,960,671097152
89, 2021/02/04, 21:48:59,38.684216,-121.771065,34.899998,1872,266,12.837075, 00(00000000),1, C0,45,0,800,671097152
90, 2021/02/04, 21:50:59,38.684235,-121.770981,34.059998,2016,238,7.586933, 00(00000000),1, C0,45,0,960,671097152
91, 2021/02/04, 21:52:58,38.684254,-121.770988,32.57,2160,282,2.221858, 00(00000000),1, C0,45,0,1376,671097152
92, 2021/02/04, 21:54:58,38.684246,-121.771103,30.25,2052,245,9.969519, 00(00000000),1, C0,45,0,992,671097152
93, 2021/02/04, 21:56:58,38.684326,-121.771126,29.679998,2520,272,9.126529, 00(00000000),1, C0,45,0,1296,671097152
94, 2021/02/04, 21:58:57,38.684223,-121.770958,31.209999,3348,227,18.53155, 00(00000000),1, C0,45,0,1184,671097152
95, 2021/02/04, 22:00:56,38.684299,-121.770966,30.59,2160,294,8.509307, 00(00000000),1, C0,45,0,1120,671097152
96, 2021/02/04, 22:02:56,38.684288,-121.770897,30.949999,0,253,6.094346, 00(00000000),1, C7,45,0,640,671097168
97, 2021/02/04, 22:04:55,38.684368,-121.770981,31.459999,2196,335,11.506952, 00(00000000),1, C0,45,0,1088,671097153
98, 2021/02/04, 22:06:55,38.684292,-121.770973,35.799999,0,231,8.509307, 00(00000000),1, C0,45,0,912,671097153
99, 2021/02/04, 22:08:55,38.684319,-121.770935,31.539999,0,170,4.447448, 00(00000000),1, C0,45,0,1280,671101248
100, 2021/02/04, 22:10:55,38.684143,-121.770874,33.899998,1980,186,20.218473, 00(00000000),1, C0,45,0,1312,671097152
101, 2021/02/04, 22:12:56,38.684223,-121.770866,34.079998,1908,200,8.932257, 00(00000000),1, C0,45,0,1168,671097152
102, 2021/02/04, 22:14:55,38.684086,-121.770905,43.02,2304,194,15.625159, 00(00000000),1, C0,45,0,1184,671097152
103, 2021/02/04, 22:16:56,38.684261,-121.770882,40.16,0,278,19.612928, 00(00000000),1, C0,45,0,1248,671097152
104, 2021/02/04, 22:18:57,38.684277,-121.770935,26.349998,0,302,4.936321, 00(00000000),2, C0,45,0,880,671096896
105, 2021/02/04, 22:20:56,38.684319,-121.770889,27.109999,0,260,6.128482, 00(00000000),1, C0,45,0,1280,671096896
106, 2021/02/04, 22:22:57,38.684265,-121.770897,21.77,2988,128,5.975259, 00(00000000),1, C5,45,0,2384,671100993
107, 2021/02/04, 22:24:57,38.684238,-121.770897,17.879999,0,250,2.969225, 00(00000000),1, C5,45,0,1808,671100993
108, 2021/02/04, 22:26:56,38.6842,-121.770958,16.99,0,214,6.786682, 00(00000000),1, C0,45,0,3104,671100992
109, 2021/02/04, 22:28:56,38.68433,-121.771004,21.67,1836,206,14.959281, 00(00000000),1, C0,45,0,5328,671100992
110, 2021/02/04, 22:30:56,38.684219,-121.770981,18.51,936,10,12.460469, 00(00000000),1, B0,45,0,6176,671100993
111, 2021/02/04, 22:32:56,38.684017,-121.771187,10.53,3492,223,28.724639, 00(00000000),1, B0,45,0,5984,671096897
112, 2021/02/04, 22:34:57,38.684078,-121.77108,10.389999,0,218,11.489781, 00(00000000),1, B0,45,0,3184,671100993
113, 2021/02/04, 22:36:57,38.684322,-121.771027,28.17,2880,281,27.540133, 00(00000000),1, B0,45,0,3232,671096897
114, 2021/02/04, 22:38:57,38.684166,-121.771027,19.98,0,215,17.391174, 00(00000000),1, B0,45,0,2576,671100993
115, 2021/02/04, 22:40:57,38.684399,-121.770973,22.799999,2844,8,26.286636, 00(00000000),1, B0,45,0,2848,671100993
116, 2021/02/04, 22:42:57,38.684536,-121.770828,21.459999,2916,9,19.786212, 00(00000000),1, B0,45,0,4448,671100992
117, 2021/02/04, 22:44:57,38.684128,-121.771042,22.41,0,358,49.028253, 00(00000000),1, B0,45,0,3040,671100993
118, 2021/02/04, 22:46:57,38.684414,-121.770996,11.44,1224,7,32.060291, 00(00000000),1, B0,45,0,2496,671100993
119, 2021/02/04, 22:48:57,38.68441,-121.770859,22.189999,0,8,11.927548, 00(00000000),1, B0,45,0,2912,671100993
120, 2021/02/04, 22:50:57,38.684517,-121.770966,10.05,3204,356,15.066989, 00(00000000),1, A0,45,0,1744,671100993
121, 2021/02/04, 22:52:57,38.684216,-121.771057,12.34,0,355,34.439191, 00(00000000),1, A0,45,0,1424,671100993
122, 2021/02/04, 22:54:58,38.684376,-121.770973,20.859999,0,343,19.247078, 00(00000000),1, A0,45,0,1248,671100993
123, 2021/02/04, 22:56:57,38.684395,-121.770882,12.24,0,11,8.224822, 00(00000000),1, A0,45,0,1232,671100993
124, 2021/02/04, 22:58:58,38.684467,-121.77095,22.559999,1908,346,10.023688, 00(00000000),1, A0,45,0,1168,671100993
125, 2021/02/04, 23:00:59,38.684444,-121.770897,26.019999,972,2,5.288255, 00(00000000),1, A0,45,0,1280,671100993
126, 2021/02/04, 23:02:59,38.684547,-121.770935,16.109999,2520,5,11.921759, 00(00000000),1, A0,45,0,2144,671100993
127, 2021/02/04, 23:05:02,38.684406,-121.770981,27.629999,0,1,16.189623, 00(00000000),1, A5,45,0,2112,671100993
128, 2021/02/04, 23:07:03,38.684345,-121.770988,18.859999,1368,296,6.819031, 00(00000000),1, A0,45,0,1568,671100992
129, 2021/02/04, 23:09:05,38.684444,-121.770943,11.71,0,356,11.72247, 00(00000000),1, A0,45,0,1728,671100992
130, 2021/02/04, 23:11:07,38.684334,-121.77095,18.6,3132,356,12.318887, 00(00000000),1, A0,45,0,1376,671100993
131, 2021/02/04, 23:13:08,38.684307,-121.770943,31.699999,1620,338,3.042176, 00(00000000),1, A0,45,0,1584,671100993
132, 2021/02/04, 23:15:09,38.684456,-121.770912,11.83,972,348,16.753557, 00(00000000),1,90,45,0,1744,671100992
133, 2021/02/04, 23:17:09,38.684303,-121.771011,21.9,0,346,19.026091, 00(00000000),1,96,45,0,1936,671100993
134, 2021/02/04, 23:19:10,38.684292,-121.771057,17.83,0,346,4.17214, 00(00000000),2,90,45,0,832,671100992
135, 2021/02/04, 23:21:10,38.684349,-121.770981,26.08,36,330,9.183515, 00(00000000),1,96,45,0,2368,671100993
136, 2021/02/04, 23:23:09,38.684231,-121.771042,20.219999,0,67,14.176527, 00(00000000),1,90,45,0,1488,671100992
137, 2021/02/04, 23:25:10,38.684307,-121.771072,0.04,0,7,8.88743, 00(00000000),1,94,45,0,1552,671100928
138, 2021/02/04, 23:27:10,38.6842,-121.771049,42.25,0,134,12.04191, 00(00000000),1, A0,45,0,736,671100928
139, 2021/02/04, 23:29:10,38.684273,-121.771004,17.1,0,7,8.985554, 00(00000000),1, A0,45,0,752,671100928
140, 2021/02/04, 23:31:10,38.684246,-121.771004,20.219999,0,7,2.969225, 00(00000000),1, A3,45,0,2176,671100928
141, 2021/02/04, 23:33:10,38.684258,-121.770981,20.469999,0,7,2.359276, 00(00000000),1,96,45,0,1424,671100993
142, 2021/02/04, 23:35:10,38.684151,-121.770996,32.299999,0,7,11.950519, 00(00000000),1,95,45,0,2112,671100992
143, 2021/02/04, 23:37:10,38.684307,-121.770973,18.66,0,7,17.50428, 00(00000000),1,95,45,0,1712,671100992
144, 2021/02/04, 23:39:09,38.684093,-121.770981,44.040001,2160,172,23.763028, 00(00000000),1,90,45,0,1120,671100992
145, 2021/02/04, 23:41:10,38.684132,-121.770996,43.790001,0,268,4.443716, 00(00000000),1,96,45,0,736,671100993
146, 2021/02/04, 23:43:10,38.684315,-121.770981,15.19,0,268,20.403432, 00(00000000),1,94,45,0,2896,536875104
147, 2021/02/04, 23:45:10,38.684349,-121.77095,13.78,0,1,4.646559, 00(00000000),1,90,45,0,848,671092801
148, 2021/02/04, 23:47:13,38.684269,-121.770935,17.93,0,198,9.0056, 00(00000000),2,90,45,0,864,671101024
149, 2021/02/04, 23:49:14,38.684147,-121.770966,42.559998,1620,198,13.829651, 00(00000000),1,90,45,0,1136,671100960
150, 2021/02/04, 23:51:15,38.684177,-121.770996,45.77,0,100,4.304861, 00(00000000),1,97,45,0,1824,671101025
151, 2021/02/04, 23:53:15,38.684219,-121.771034,17.539999,0,93,5.721397, 00(00000000),1,95,45,0,1872,671100993
152, 2021/02/04, 23:55:15,38.684299,-121.771027,13.849999,0,93,8.932257, 00(00000000),1,96,45,0,608,671101025
153, 2021/02/04, 23:57:15,38.684292,-121.771004,18.129999,0,327,2.160222, 00(00000000),1,95,45,0,960,671100961
154, 2021/02/04, 23:59:15,38.684292,-121.771004,18.129999,0,327,0, 00(00000000),1,95,45,0,1504,671100960
155, 2021/02/05, 00:01:16,38.68433,-121.770943,28.93,0,349,6.786677, 00(00000000),1,90,45,0,1136,671100960
156, 2021/02/05, 00:03:16,38.684292,-121.770966,21.02,0,332,4.683941, 00(00000000),1,94,45,0,912,536883233
157, 2021/02/05, 00:05:17,38.684238,-121.770927,43.23,288,48,6.799169, 00(00000000),1,96,45,0,1552,671100961
158, 2021/02/05, 00:07:18,38.684254,-121.77092,40.48,0,48,1.821354, 00(00000000),1,95,45,0,2688,671100960
159, 2021/02/05, 00:09:19,38.684315,-121.770988,-2.67,0,344,9.032297, 00(00000000),2, A0,45,0,880,671100960
160, 2021/02/05, 00:11:19,38.684219,-121.770943,42.509998,0,344,11.324319, 00(00000000),1,94,45,0,2448,536883232
161, 2021/02/05, 00:13:19,38.684216,-121.770927,34.509998,0,344,1.390715, 00(00000000),1,96,45,0,1456,671100961
162, 2021/02/05, 00:15:20,38.684254,-121.770851,44.73,0,344,7.864255, 00(00000000),2,90,45,0,1008,134230048
163, 2021/02/05, 00:17:18,38.684341,-121.77092,45.259998,900,325,11.432487, 00(00000000),1,90,45,0,1024,671100960
164, 2021/02/05, 00:19:21,38.684311,-121.770859,45.029999,0,94,6.291398, 00(00000000),4,94,45,0,3072,671096864
165, 2021/02/05, 00:21:20,38.684219,-121.770798,31.099998,0,110,11.476195, 00(00000000),1,90,45,0,1776,671100960
166, 2021/02/05, 00:23:19,38.684322,-121.770973,30.4,0,354,19.056565, 00(00000000),1,95,45,0,1984,671100960
167, 2021/02/05, 00:25:18,38.684288,-121.77095,27.92,0,354,4.303572, 00(00000000),1, A6,45,0,1488,671100961
168, 2021/02/05, 00:27:17,38.684288,-121.77095,27.92,0,354,0, 00(00000000),1, A5,45,0,1968,671100960
169, 2021/02/05, 00:29:15,38.684383,-121.770973,28.49,1224,314,10.788865, 00(00000000),1, A0,45,0,912,671100960
170, 2021/02/05, 00:31:14,38.684387,-121.770981,29.119999,0,312,0.786424, 00(00000000),1, A5,45,0,960,671100961
171, 2021/02/05, 00:33:13,38.684387,-121.770981,29.119999,0,312,0, 00(00000000),1, A4,45,0,1008,671100928
172, 2021/02/05, 00:35:12,38.684208,-121.770897,31.26,0,312,21.225371, 00(00000000),1, A0,45,0,960,671100960
173, 2021/02/05, 00:37:10,38.684319,-121.770927,31.529999,0,312,12.583047, 00(00000000),1, A0,45,0,1552,671100960
174, 2021/02/05, 00:39:10,38.684319,-121.770988,28.469999,0,312,5.297786, 00(00000000),2, A0,45,0,800,671100960
175, 2021/02/05, 00:41:08,38.684345,-121.770981,29.689999,0,147,3.042176, 00(00000000),1, A4,45,0,2064,671100960
176, 2021/02/05, 00:43:06,38.684303,-121.770958,22.26,0,147,5.071263, 00(00000000),1, A6,45,0,2176,671100960
177, 2021/02/05, 00:45:04,38.684361,-121.770943,18.25,0,358,6.499012, 00(00000000),1, A4,45,0,4544,134225954
178, 2021/02/05, 00:47:02,38.684296,-121.770927,13.259999,0,358,7.331597, 00(00000000),1, A0,45,0,1728,671100960
179, 2021/02/05, 00:49:03,38.684315,-121.770905,46.439999,0,40,2.906023, 00(00000000),3, B3,45,0,1824,134230048
180, 2021/02/05, 00:51:01,38.684422,-121.770927,-33.73,1656,83,12.04191, 00(00000000),1, B0,45,0,1920,671100930
181, 2021/02/05, 00:52:58,38.684376,-121.770943,16.449999,1908,224,5.259588, 00(00000000),1, B0,45,0,1728,671100960
182, 2021/02/05, 00:54:57,38.684326,-121.770935,24.959999,0,224,5.553896, 00(00000000),1, B4,45,0,3312,671096864
183, 2021/02/05, 00:56:55,38.684322,-121.770828,20.98,1584,335,9.280823, 00(00000000),1, B0,45,0,1520,671100962
184, 2021/02/05, 00:58:53,38.684361,-121.77092,32.630001,0,128,9.007892, 00(00000000),1, B0,45,0,1456,671100962
185, 2021/02/05, 01:00:50,38.684311,-121.770859,29.08,288,263,7.646813, 00(00000000),1, B6,45,0,1952,671100962
186, 2021/02/05, 01:02:47,38.684429,-121.770897,36.009998,1332,337,13.559898, 00(00000000),1, B0,45,0,1440,536883234
187, 2021/02/05, 01:04:44,38.6842,-121.770683,46.689999,1404,93,31.488776, 00(00000000),1, B0,45,0,2128,671100962
188, 2021/02/05, 01:06:41,38.684444,-121.770981,7.88,2376,334,37.469843, 00(00000000),1, B0,45,0,1440,671100960
189, 2021/02/05, 01:08:38,38.684364,-121.770844,21.219999,0,319,14.880631, 00(00000000),1, B0,45,0,1680,671100962
190, 2021/02/05, 01:10:36,38.684357,-121.770927,19.67,0,90,7.333685, 00(00000000),1, B0,45,0,944,134232098
191, 2021/02/05, 01:12:32,38.684414,-121.770958,33.329998,756,318,6.891996, 00(00000000),1, C0,45,0,1344,671100962
192, 2021/02/05, 01:14:30,38.684437,-121.771088,39.989998,4320,315,11.541874, 00(00000000),1, C0,45,0,2464,134230050
193, 2021/02/05, 01:16:27,38.684258,-121.77079,6.45,0,312,32.626236, 00(00000000),1, C7,45,0,976,671103010
194, 2021/02/05, 01:18:25,38.684326,-121.770805,22.92,0,312,7.749172, 00(00000000),2, C0,45,0,1072,134232098
195, 2021/02/05, 01:20:22,38.684368,-121.770882,28.17,0,329,8.100913, 00(00000000),1, B4,45,0,1440,134228002
196, 2021/02/05, 01:22:19,38.684284,-121.770844,25.769999,0,329,9.901864, 00(00000000),1, B7,45,0,752,134232098
197, 2021/02/05, 01:24:16,38.684158,-121.77092,2.53,0,329,15.485211, 00(00000000),2, A0,45,0,720,134228000
198, 2021/02/05, 01:26:14,38.684277,-121.770798,15.65,0,130,16.887091, 00(00000000),1, B4,45,0,3184,134225954
199, 2021/02/05, 01:28:10,38.684361,-121.770889,34.57,0,228,12.256962, 00(00000000),1, B0,45,0,912,134232098
200, 2021/02/05, 01:30:07,38.684311,-121.770828,40.399998,0,207,7.646813, 00(00000000),1, B0,45,0,736,134225954
201, 2021/02/05, 01:32:05,38.684326,-121.770821,25.689999,0,57,1.821354, 00(00000000),1, A6,45,0,880,134232098
202, 2021/02/05, 01:34:05,38.684464,-121.770981,18.51,0,328,20.653755, 00(00000000),4, A4,45,0,2352,134228002
203, 2021/02/05, 01:36:02,38.684452,-121.77092,29.779999,0,328,5.448463, 00(00000000),1, A6,45,0,1696,134232098
204, 2021/02/05, 01:37:59,38.684525,-121.771111,13.48,0,328,18.413003, 00(00000000),1, A4,45,0,2336,134230050
205, 2021/02/05, 01:39:57,38.684593,-121.771164,16.6,0,104,8.932178, 00(00000000),2, A5,45,0,6656,134230050
206, 2021/02/05, 01:41:54,38.684311,-121.770805,29.75,0,32,44.204033, 00(00000000),1, A4,45,0,4176,134225954
207, 2021/02/05, 01:43:51,38.684284,-121.770851,20.559999,0,194,4.960215, 00(00000000),1, A5,45,0,1552,134228002
208, 2021/02/05, 01:45:48,38.684334,-121.77092,24.32,1620,203,8.119664, 00(00000000),1, A0,45,0,1200,134230050
209, 2021/02/05, 01:47:44,38.684387,-121.770813,41.599998,0,80,11.009943, 00(00000000),2, A0,45,0,816,134225954
210, 2021/02/05, 01:49:41,38.684391,-121.770859,50.559998,1296,211,3.995913, 00(00000000),1, A0,45,0,1120,134228002
211, 2021/02/05, 01:51:40,38.684353,-121.770782,29.75,0,146,7.864244, 00(00000000),4, A5,45,0,2960,134228002
212, 2021/02/05, 01:53:36,38.684402,-121.770821,29.859999,0,52,6.432006, 00(00000000),1, A4,45,0,4656,134225954
213, 2021/02/05, 01:55:32,38.684402,-121.770821,29.859999,0,52,0, 00(00000000),1, A6,45,0,1296,134228002
214, 2021/02/05, 01:57:32,38.68425,-121.770676,38.77,0,52,21.123254, 00(00000000),4, A4,45,0,6944,134225954